Regional Weather Roundup
Issued by NWS Green Bay, WI

Home | Current Version | Previous Version | Graphics & Text | Print | Product List | Glossary Off
Versions: 1 2 3 4 5 6 7 8 9 10 11 12 13 14 15 16 17 18 19 20 21 22 23 24 25 26 27 28 29 30 31 32 33 34 35 36 37 38 39 40 41 42 43 44 45 46 47 48

890
ASUS43 KGRB 212311
RWRGRB

NORTH-CENTRAL AND NORTHEAST WISCONSIN REGIONAL WEATHER ROUNDUP
NATIONAL WEATHER SERVICE GREEN BAY WI
600 PM CDT THU MAY 21 2015

WIZ005-009-010>012-018-019-220000-
NORTH CENTRAL WISCONSIN

CITY           SKY/WX    TMP DP  RH WIND       PRES   REMARKS
IRONWOOD       SUNNY     61  28  29 NW6       29.99S
MANITOWISH WTR SUNNY     60  29  30 N6G16     30.01S
ARBOR VITAE    SUNNY     62  26  26 N17G23    30.00S
EAGLE RIVER    SUNNY     60  23  24 N10G20    29.99S
LAND O LAKES   SUNNY     60  26  26 N13       30.01S
RHINELANDER    SUNNY     62  25  24 N10G21    30.00R
PHILLIPS       SUNNY     63  32  31 N9        30.00S
ANTIGO         MOSUNNY   65  31  28 NW18G26   29.95R
TOMAHAWK       SUNNY     63  26  24 N9G18     30.00R
MERRILL        SUNNY     66  29  25 N17G23    29.98R
$$

WIZ013-073-220000-
NORTHEAST WISCONSIN

CITY           SKY/WX    TMP DP  RH WIND       PRES   REMARKS
IRON MOUNTAIN  SUNNY     64  27  24 NW16G26   29.95R
MARINETTE      MOSUNNY   55  34  44 E14G21    29.96R
OCONTO         PTSUNNY   57  42  57 E9        29.93F
$$

WIZ017-030-035>037-045-220000-
CENTRAL WISCONSIN

CITY           SKY/WX    TMP DP  RH WIND       PRES   REMARKS
MEDFORD        SUNNY     65  34  31 N13G21    29.98R
WAUSAU         MOSUNNY   69  33  26 N12G21    29.93R
MOSINEE        MOSUNNY   70  36  28 NW12G17   29.95R
MARSHFIELD     MOSUNNY   70  35  27 NW17      29.95S
WISC RAPIDS    MOSUNNY   73  31  21 NW20      29.94F
STEVENS POINT  MOSUNNY   70  33  25 W13G23    29.93S
WAUPACA        MOSUNNY   75  32  20 W9G20     29.91F
SHAWANO        PTSUNNY   69  37  31 W5        29.91S
CLINTONVILLE   MOSUNNY   70  34  26 W8        29.91S
$$

WIZ038-039-048-051-220000-
FOX VALLEY

CITY           SKY/WX    TMP DP  RH WIND       PRES   REMARKS
NWS GREEN BAY  CLOUDY    61  46  57 NE14      29.93S
APPLETON       PTSUNNY   68  32  26 NW15G22   29.92S
OSHKOSH        MOSUNNY   71  38  29 W6        29.91F
FOND DU LAC    MOSUNNY   73  34  23 W13G23    29.92F
$$

WIZ022-050-052-220000-
EAST CENTRAL WISCONSIN

CITY           SKY/WX    TMP DP  RH WIND       PRES   REMARKS
STURGEON BAY   PTSUNNY   55  34  44 NE12      29.99R
MANITOWOC      LGT RAIN  56  41  57 NE10G24   29.94R
SHEBOYGAN      MOSUNNY   70  36  28 W18G28    29.92S
$$

LMZ563-521-522-541>543-220000-
LAKESHORE

STATION/POSITION TIME  TEMP    WIND        PRES    VSBY  WAVE
                       AIR SEA DIR/SP/G                  HT/PER
                 (UTC) (F)     (DEG/KT/KT) (MB)    (MI)  (FT/S)
SHEBOYGAN LKSHOR 2300   70     260/ 18/ 21 1013.0F
KEWAUNEE LKSHORE 2200           30/ 10/ 15 1012.9R
NORTHPORT PIER   2200   57      30/ 12/ 16 1014.6R
N MID LAKE BUOY  2250   42 36  360/ 10/ 10 1015.4R         1/ 4
SISTER BAY LKSHO 2202   60     100/ 10/ 16   N/A
CHAMBERS ISLAND  2240   53      60/ 11/ 18 1014.9R
MENOMINEE LKSHOR 2200   55      60/ 10/ 12 1014.9R
$$



USA.gov is the U.S. government's official web portal to all federal, state and local government web resources and services.